Flag for Canada Weather past 2 weeks in Owen Sound, Ontario, Canada

Now
36 °F

Light rain. Low clouds.


Feels Like: 29 °F
Forecast: 36 / 50 °F
Wind: 8 mph from North

Location: Wiarton

Current Time: Apr 27, 2015 at 4:10:21 AM

Latest Report: Apr 27, 2015 at 3:00 AM


Visibility: 8 mi

Pressure: 29.88 "Hg

Humidity: 93%

Dew point: 34 °F

Location of Owen SoundLocation

Historic Weather in Owen Sound — Graph

°F

Owen Sound temperature yesterday

Maximum temperature yesterday: 46 °F (at 1:00 PM)
Minimum temperature yesterday: 36 °F (at 5:00 AM)
Average temperature yesterday: 41 °F

Past Weeks' High & Low Weather Summary

 TemperatureHumidityPressure
High68 °F (Apr 13, 11:00 AM)100% (Apr 14, 1:00 AM)30.45 "Hg (Apr 14, 1:00 AM)
Low23 °F (Apr 25, 4:00 AM)23% (Apr 14, 5:00 PM)29.23 "Hg (Apr 20, 3:45 PM)
Average43 °F68%29.94 "Hg
* Reported Apr 12 3:00 AM — Apr 27 3:00 AM, Owen Sound, Weather by CustomWeather, © 2015

Note: Actual official high and low records may vary slightly from our data, if they occured in-between our weather recording intervals... More about our weather records

Advertising

Owen Sound weather history for previous 24 hours

 ConditionsComfort  
Time TempWeatherWind HumidityBarometerVisibility
3:00 AM
Mon, Apr 27
36 °FLight rain. Low clouds.8 mph93%29.88 "Hg8 mi
2:00 AM36 °FLight rain. Mostly cloudy.10 mph93%29.89 "Hg10 mi
1:00 AM37 °FLight rain. Mostly cloudy.8 mph87%29.90 "Hg12 mi
12:00 AM37 °FLight rain. Mostly cloudy.12 mph87%29.90 "Hg15 mi
11:00 PM
Sun, Apr 26
39 °FOvercast.12 mph81%29.90 "Hg15 mi
10:00 PM41 °FOvercast.2 mph76%29.89 "Hg15 mi
9:00 PM39 °FPartly sunny.5 mph81%29.88 "Hg15 mi
8:00 PM41 °FPartly sunny.3 mph76%29.89 "Hg15 mi
7:00 PM43 °FOvercast.7 mph71%29.90 "Hg15 mi
6:00 PM45 °FPartly sunny.10 mph66%29.90 "Hg15 mi
5:00 PM45 °FPartly sunny.10 mph66%29.90 "Hg15 mi
4:00 PM45 °FPartly sunny.8 mph66%29.91 "Hg15 mi
3:00 PM46 °FPartly sunny.8 mph57%29.91 "Hg15 mi
2:00 PM46 °FScattered clouds.9 mph57%29.91 "Hg15 mi
1:00 PM46 °FScattered clouds.8 mph62%29.91 "Hg15 mi
12:00 PM43 °FOvercast.6 mph66%29.93 "Hg15 mi
11:00 AM41 °FOvercast.7 mph70%29.93 "Hg15 mi
10:00 AM41 °FOvercast.3 mph70%29.93 "Hg15 mi
9:00 AM39 °FPartly sunny.6 mph75%29.93 "Hg15 mi
8:00 AM39 °FScattered clouds.5 mph70%29.92 "Hg15 mi
7:00 AM37 °FPassing clouds.3 mph75%29.90 "Hg15 mi
6:00 AM36 °FPassing clouds.5 mph75%29.89 "Hg15 mi
5:00 AM36 °FClear.5 mph75%29.88 "Hg15 mi
4:00 AM37 °FClear.8 mph70%29.87 "Hg15 mi
Weather by CustomWeather, © 2015

See weather overviewHow to use our weather pages